Location: Doverdale
(52.2833°N, 2.2000°W)
Time: 14:43:29
(UTC+00:00)

Cosmos 292 Rocket - Pass Details

Date: 29 October 2020
Orbit: 672 x 695 km, 74.0° (Epoch: 28 November)

Event Time Altitude Azimuth Distance (km) Brightness Sun altitude
Rises 17:52:14 0° 203° (SSW) 3,032 7.6 -10.8°
Reaches altitude 10° 17:54:31 10° 204° (SSW) 2,125 6.8 -11.2°
Maximum altitude 17:59:19 89° 283° (WNW) 695 3.8 -11.9°
Drops below altitude 10° 18:04:11 10° 25° (NNE) 2,155 6.0 -12.6°
Sets 18:06:31 0° 26° (NNE) 3,079 6.8 -13.0°
